Hourly Data Report for October 28, 2020

LUNENBURG
NOVA SCOTIA
Current Station Operator: ECCC - MSC

44°21'36.094" N
64°17'46.082" W
3.80 m
8203210
XLB

Download Data

Hourly Data (October 2020)
Hourly Data Report for October 28, 2020
TIME Temp Definition
°C
Dew Point Definition
°C
Rel Hum Definition
%
Wind Dir Definition
10's deg

Wind Spd Definition
km/h
Visibility Definition
km
Stn Press Definition
kPa
Hmdx Definition


Wind Chill Definition


Weather Definition


00:00 4.7 -1.0 67 30 16   101.72     LegendNANA
01:00 4.3 -1.0 69 30 15   101.74     LegendNANA
02:00 4.3 -0.4 71 31 18   101.77     LegendNANA
03:00 3.9 -0.6 72 30 16   101.79     LegendNANA
04:00 3.1 -1.0 74 30 17   101.83     LegendNANA
05:00 3.2 -0.6 76 30 17   101.84     LegendNANA
06:00 2.4 -1.0 78 29 14   101.94     LegendNANA
07:00 1.8 -0.9 82 30 11   101.91     LegendNANA
08:00 2.4 -0.6 81 31 11   101.97     LegendNANA
09:00 2.8 -1.6 73 31 12   101.97     LegendNANA
10:00 3.5 -2.3 66 31 8   101.96     LegendNANA
11:00 4.5 -1.1 67 34 7   101.90     LegendNANA
12:00 5.3 -0.9 64 12 6   101.82     LegendNANA
13:00 5.6 0.0 67 11 13   101.72     LegendNANA
14:00 5.7 0.7 70 11 15   101.67     LegendNANA
15:00 7.1 1.9 69 17 10   101.62     LegendNANA
16:00 7.2 -0.5 58 23 20   101.58     LegendNANA
17:00 7.0 0.0 61 26 13   101.57     LegendNANA
18:00 6.8 0.8 66 21 12   101.51     LegendNANA
19:00 6.2 0.8 68 22 14   101.44     LegendNANA
20:00 6.1 1.9 75 20 12   101.40     LegendNANA
21:00 5.6 1.3 74 25 9   101.40     LegendNANA
22:00 5.5 0.8 72 25 8   101.32     LegendNANA
23:00 5.3 1.9 79 27 10   101.29     LegendNANA

Notes on Data Quality.

Legend

  • E = Estimated
  • M = Missing
  • NA = Not Available*
  • [empty] = Indicates an unobserved value
Date modified: